| time (UTC) | temp C | wind direction | speed KPH | gust KPH | rain 1hr cm | rain 24hr cm | rain mn cm | humidity % | barometer mb |
| 20260510093039 | 23 | 244 | 14.5 | 19.3 | 0.00 | 0.00 | 0.00 | 57 | 1018.1 |
| 20260510092527 | 23 | 200 | 9.7 | 16.1 | 0.00 | 0.00 | 0.00 | 57 | 1018.0 |
| 20260510092029 | 23 | 198 | 9.7 | 17.7 | 0.00 | 0.00 | 0.00 | 57 | 1018.1 |
| 20260510091526 | 23 | 259 | 12.9 | 19.3 | 0.00 | 0.00 | 0.00 | 57 | 1018.0 |
| 20260510091025 | 23 | 183 | 11.3 | 17.7 | 0.00 | 0.00 | 0.00 | 56 | 1018.0 |
| 20260510090524 | 23 | 233 | 14.5 | 17.7 | 0.00 | 0.00 | 0.00 | 57 | 1018.1 |
| 20260510090024 | 23 | 208 | 11.3 | 16.1 | 0.00 | 0.00 | 0.00 | 56 | 1018.1 |
| 20260510085523 | 23 | 217 | 8.0 | 16.1 | 0.00 | 0.00 | 0.00 | 55 | 1018.1 |
| 20260510085020 | 23 | 245 | 8.0 | 16.1 | 0.00 | 0.00 | 0.00 | 56 | 1018.2 |
| 20260510084528 | 23 | 219 | 8.0 | 14.5 | 0.00 | 0.00 | 0.00 | 56 | 1018.1 |
| 20260510084018 | 23 | 225 | 6.4 | 14.5 | 0.00 | 0.00 | 0.00 | 57 | 1018.1 |
| 20260510083517 | 23 | 197 | 6.4 | 16.1 | 0.00 | 0.00 | 0.00 | 58 | 1018.1 |
| 20260510083016 | 22 | 258 | 8.0 | 22.5 | 0.00 | 0.00 | 0.00 | 58 | 1018.2 |
| 20260510082514 | 22 | 232 | 12.9 | 22.5 | 0.00 | 0.00 | 0.00 | 58 | 1018.2 |
| 20260510082013 | 22 | 202 | 8.0 | 19.3 | 0.00 | 0.00 | 0.00 | 58 | 1018.2 |
| 20260510081522 | 22 | 244 | 12.9 | 19.3 | 0.00 | 0.00 | 0.00 | 57 | 1018.2 |
| 20260510081010 | 22 | 213 | 9.7 | 16.1 | 0.00 | 0.00 | 0.00 | 58 | 1018.2 |
| 20260510080508 | 22 | 286 | 6.4 | 14.5 | 0.00 | 0.00 | 0.00 | 59 | 1018.0 |
| 20260510080017 | 22 | 257 | 6.4 | 14.5 | 0.00 | 0.00 | 0.00 | 58 | 1018.0 |
| 20260510075506 | 22 | 207 | 6.4 | 14.5 | 0.00 | 0.00 | 0.00 | 59 | 1017.9 |
| 20260510075006 | 22 | 256 | 8.0 | 12.9 | 0.00 | 0.00 | 0.00 | 60 | 1017.8 |
| 20260510074504 | 22 | 210 | 8.0 | 12.9 | 0.00 | 0.00 | 0.00 | 60 | 1017.7 |
| 20260510074003 | 21 | 242 | 3.2 | 12.9 | 0.00 | 0.00 | 0.00 | 62 | 1017.6 |
| 20260510073503 | 22 | 267 | 8.0 | 12.9 | 0.00 | 0.00 | 0.00 | 62 | 1017.6 |
| 20260510073102 | 22 | 184 | 4.8 | 11.3 | 0.00 | 0.00 | 0.00 | 62 | 1017.5 |
| 20260510072558 | 21 | 164 | 6.4 | 14.5 | 0.00 | 0.00 | 0.00 | 64 | 1017.6 |
| 20260510072057 | 21 | 273 | 6.4 | 14.5 | 0.00 | 0.00 | 0.00 | 66 | 1017.6 |
| 20260510071559 | 21 | 252 | 8.0 | 12.9 | 0.00 | 0.00 | 0.00 | 66 | 1017.6 |
| 20260510071054 | 21 | 266 | 8.0 | 11.3 | 0.00 | 0.00 | 0.00 | 65 | 1017.6 |
| 20260510070553 | 21 | 262 | 4.8 | 11.3 | 0.00 | 0.00 | 0.00 | 65 | 1017.5 |
| 20260510070051 | 21 | 256 | 4.8 | 11.3 | 0.00 | 0.00 | 0.00 | 65 | 1017.5 |
| 20260510065550 | 21 | 241 | 3.2 | 9.7 | 0.00 | 0.00 | 0.00 | 65 | 1017.5 |
| 20260510065049 | 21 | 186 | 1.6 | 11.3 | 0.00 | 0.00 | 0.00 | 65 | 1017.5 |
| 20260510064547 | 20 | 185 | 4.8 | 11.3 | 0.00 | 0.00 | 0.00 | 66 | 1017.4 |
| 20260510064046 | 20 | 181 | 4.8 | 11.3 | 0.00 | 0.00 | 0.00 | 67 | 1017.5 |
| 20260510063545 | 20 | 246 | 6.4 | 12.9 | 0.00 | 0.00 | 0.00 | 67 | 1017.5 |
| 20260510063045 | 20 | 234 | 8.0 | 12.9 | 0.00 | 0.00 | 0.00 | 67 | 1017.4 |
| 20260510062541 | 20 | 240 | 4.8 | 12.9 | 0.00 | 0.00 | 0.00 | 68 | 1017.4 |
| 20260510062040 | 20 | 215 | 4.8 | 11.3 | 0.00 | 0.00 | 0.00 | 69 | 1017.5 |
| 20260510061547 | 19 | 222 | 6.4 | 11.3 | 0.00 | 0.00 | 0.00 | 69 | 1017.4 |
| 20260510061038 | 19 | 209 | 4.8 | 9.7 | 0.00 | 0.00 | 0.00 | 69 | 1017.5 |
| 20260510060539 | 19 | 244 | 6.4 | 8.0 | 0.00 | 0.00 | 0.00 | 70 | 1017.5 |
| 20260510060036 | 19 | 204 | 4.8 | 8.0 | 0.00 | 0.00 | 0.00 | 70 | 1017.6 |
| 20260510055534 | 19 | 203 | 4.8 | 8.0 | 0.00 | 0.00 | 0.00 | 70 | 1017.5 |
| 20260510055033 | 19 | 196 | 3.2 | 6.4 | 0.00 | 0.00 | 0.00 | 70 | 1017.4 |
| 20260510054532 | 18 | 253 | 1.6 | 4.8 | 0.00 | 0.00 | 0.00 | 72 | 1017.3 |
| 20260510054031 | 18 | 252 | 1.6 | 6.4 | 0.00 | 0.00 | 0.00 | 71 | 1017.3 |
| 20260510053528 | 18 | 252 | 3.2 | 4.8 | 0.00 | 0.00 | 0.00 | 71 | 1017.2 |
| 20260510053027 | 18 | 252 | 0.0 | 4.8 | 0.00 | 0.00 | 0.00 | 72 | 1017.2 |
| 20260510052530 | 18 | 261 | 1.6 | 4.8 | 0.00 | 0.00 | 0.00 | 72 | 1017.2 |
| 20260510052024 | 18 | 264 | 0.0 | 4.8 | 0.00 | 0.00 | 0.00 | 72 | 1017.0 |
| 20260510051523 | 18 | 290 | 1.6 | 4.8 | 0.00 | 0.00 | 0.00 | 71 | 1017.0 |
| 20260510051021 | 18 | 294 | 0.0 | 3.2 | 0.00 | 0.00 | 0.00 | 71 | 1016.9 |
| 20260510050521 | 18 | 59 | 0.0 | 3.2 | 0.00 | 0.00 | 0.00 | 71 | 1016.8 |
| 20260510050020 | 18 | 62 | 0.0 | 0.0 | 0.00 | 0.00 | 0.00 | 71 | 1016.7 |
| 20260510045519 | 17 | 61 | 0.0 | 0.0 | 0.00 | 0.00 | 0.00 | 72 | 1016.8 |
| 20260510045018 | 17 | 50 | 0.0 | 0.0 | 0.00 | 0.00 | 0.00 | 72 | 1017.0 |
| 20260510044518 | 17 | 49 | 0.0 | 1.6 | 0.00 | 0.00 | 0.00 | 73 | 1016.9 |
| 20260510044016 | 16 | 49 | 0.0 | 1.6 | 0.00 | 0.00 | 0.00 | 74 | 1016.9 |
| 20260510043516 | 16 | 47 | 0.0 | 4.8 | 0.00 | 0.00 | 0.00 | 74 | 1017.1 |
| 20260510043020 | 16 | 44 | 0.0 | 6.4 | 0.00 | 0.00 | 0.00 | 76 | 1016.9 |
| 20260510042514 | 15 | 15 | 3.2 | 6.4 | 0.00 | 0.00 | 0.00 | 76 | 1016.9 |
| 20260510042012 | 15 | 45 | 3.2 | 6.4 | 0.00 | 0.00 | 0.00 | 76 | 1016.9 |
| 20260510041511 | 15 | 31 | 3.2 | 8.0 | 0.00 | 0.00 | 0.00 | 76 | 1016.8 |
| 20260510041010 | 15 | 42 | 4.8 | 8.0 | 0.00 | 0.00 | 0.00 | 76 | 1016.7 |
| 20260510040509 | 15 | 47 | 4.8 | 11.3 | 0.00 | 0.00 | 0.00 | 78 | 1016.6 |
| 20260510040008 | 15 | 55 | 6.4 | 11.3 | 0.00 | 0.00 | 0.00 | 78 | 1016.5 |
| 20260510035506 | 15 | 11 | 4.8 | 9.7 | 0.00 | 0.00 | 0.00 | 78 | 1016.5 |
| 20260510035005 | 14 | 46 | 4.8 | 9.7 | 0.00 | 0.00 | 0.00 | 78 | 1016.5 |
| 20260510034504 | 14 | 19 | 4.8 | 9.7 | 0.00 | 0.00 | 0.00 | 78 | 1016.4 |
| 20260510034003 | 14 | 24 | 4.8 | 9.7 | 0.00 | 0.00 | 0.00 | 78 | 1016.3 |
| 20260510033501 | 15 | 19 | 4.8 | 6.4 | 0.00 | 0.00 | 0.00 | 77 | 1016.3 |
| 20260510033001 | 15 | 43 | 1.6 | 4.8 | 0.00 | 0.00 | 0.00 | 77 | 1016.3 |
| 20260510032601 | 15 | 52 | 1.6 | 3.2 | 0.00 | 0.00 | 0.00 | 76 | 1016.2 |
| 20260510032104 | 15 | 58 | 1.6 | 4.8 | 0.00 | 0.00 | 0.00 | 76 | 1016.2 |
| 20260510031601 | 15 | 59 | 1.6 | 4.8 | 0.00 | 0.00 | 0.00 | 76 | 1016.3 |
| 20260510031059 | 15 | 56 | 0.0 | 4.8 | 0.00 | 0.00 | 0.00 | 76 | 1016.3 |
| 20260510030558 | 15 | 42 | 1.6 | 6.4 | 0.00 | 0.00 | 0.00 | 76 | 1016.3 |
| 20260510030058 | 15 | 38 | 3.2 | 6.4 | 0.00 | 0.00 | 0.00 | 75 | 1016.4 |
| 20260510025558 | 15 | 57 | 1.6 | 4.8 | 0.00 | 0.00 | 0.00 | 76 | 1016.2 |
| 20260510025058 | 15 | 57 | 0.0 | 3.2 | 0.00 | 0.00 | 0.00 | 75 | 1016.2 |
| 20260510024602 | 15 | 56 | 0.0 | 4.8 | 0.00 | 0.00 | 0.00 | 76 | 1016.1 |
| 20260510024057 | 15 | 55 | 1.6 | 4.8 | 0.00 | 0.00 | 0.00 | 76 | 1016.2 |
| 20260510023557 | 15 | 48 | 3.2 | 8.0 | 0.00 | 0.00 | 0.00 | 76 | 1016.1 |
| 20260510023057 | 15 | 63 | 3.2 | 9.7 | 0.00 | 0.00 | 0.00 | 77 | 1016.0 |
| 20260510022556 | 15 | 59 | 6.4 | 12.9 | 0.00 | 0.00 | 0.00 | 77 | 1016.1 |
| 20260510022056 | 15 | 41 | 8.0 | 12.9 | 0.00 | 0.00 | 0.00 | 77 | 1016.2 |
| 20260510021556 | 15 | 20 | 3.2 | 6.4 | 0.00 | 0.00 | 0.00 | 77 | 1016.2 |
| 20260510021057 | 14 | 38 | 3.2 | 8.0 | 0.00 | 0.00 | 0.00 | 77 | 1016.2 |
| 20260510020555 | 14 | 53 | 4.8 | 8.0 | 0.00 | 0.00 | 0.00 | 77 | 1016.0 |
| 20260510020054 | 15 | 42 | 3.2 | 6.4 | 0.00 | 0.00 | 0.00 | 76 | 1016.0 |
| 20260510015554 | 15 | 57 | 3.2 | 8.0 | 0.00 | 0.00 | 0.00 | 76 | 1016.0 |
| 20260510015052 | 15 | 57 | 4.8 | 8.0 | 0.00 | 0.00 | 0.00 | 76 | 1016.0 |
| 20260510014552 | 15 | 41 | 4.8 | 6.4 | 0.00 | 0.00 | 0.00 | 75 | 1016.1 |
| 20260510014052 | 15 | 44 | 1.6 | 8.0 | 0.00 | 0.00 | 0.00 | 74 | 1016.1 |
| 20260510013553 | 15 | 50 | 4.8 | 8.0 | 0.00 | 0.00 | 0.00 | 74 | 1016.0 |
| 20260510013054 | 15 | 30 | 4.8 | 8.0 | 0.00 | 0.00 | 0.00 | 73 | 1016.0 |
| 20260510012551 | 15 | 63 | 4.8 | 9.7 | 0.00 | 0.00 | 0.00 | 75 | 1016.0 |
| 20260510012050 | 15 | 32 | 4.8 | 9.7 | 0.00 | 0.00 | 0.00 | 75 | 1016.0 |
| 20260510011555 | 15 | 22 | 6.4 | 8.0 | 0.00 | 0.00 | 0.00 | 75 | 1016.1 |
| 20260510011050 | 15 | 38 | 4.8 | 8.0 | 0.00 | 0.00 | 0.00 | 75 | 1016.1 |
| 20260510010551 | 15 | 21 | 4.8 | 9.7 | 0.00 | 0.00 | 0.00 | 74 | 1016.0 |
| 20260510010050 | 15 | 13 | 4.8 | 9.7 | 0.00 | 0.00 | 0.00 | 74 | 1016.0 |
| 20260510005548 | 15 | 48 | 6.4 | 8.0 | 0.00 | 0.00 | 0.00 | 74 | 1015.8 |
| 20260510005047 | 15 | 26 | 4.8 | 9.7 | 0.00 | 0.00 | 0.00 | 73 | 1015.8 |
| 20260510004550 | 15 | 30 | 8.0 | 9.7 | 0.00 | 0.00 | 0.00 | 73 | 1015.8 |
| 20260510004046 | 15 | 26 | 4.8 | 8.0 | 0.00 | 0.00 | 0.00 | 73 | 1015.8 |
| 20260510003545 | 15 | 46 | 3.2 | 6.4 | 0.00 | 0.00 | 0.00 | 74 | 1015.7 |
| 20260510003103 | 15 | 45 | 3.2 | 6.4 | 0.00 | 0.00 | 0.00 | 74 | 1015.7 |
| 20260510002543 | 15 | 46 | 3.2 | 4.8 | 0.00 | 0.00 | 0.00 | 73 | 1015.8 |
| 20260510002043 | 15 | 50 | 3.2 | 6.4 | 0.00 | 0.00 | 0.00 | 74 | 1015.9 |
| 20260510001543 | 15 | 44 | 3.2 | 6.4 | 0.00 | 0.00 | 0.00 | 73 | 1015.8 |
| 20260510001042 | 15 | 42 | 3.2 | 6.4 | 0.00 | 0.00 | 0.00 | 73 | 1015.9 |
| 20260510000542 | 16 | 43 | 1.6 | 6.4 | 0.00 | 0.00 | 0.00 | 72 | 1015.9 |
| 20260510000046 | 16 | 44 | 3.2 | 8.0 | 0.00 | 0.00 | 0.00 | 72 | 1016.0 |
| 20260509235541 | 16 | 42 | 3.2 | 11.3 | 0.00 | 0.00 | 0.00 | 72 | 1016.0 |
| 20260509235041 | 15 | 51 | 3.2 | 11.3 | 0.00 | 0.00 | 0.00 | 73 | 1015.9 |
| 20260509234558 | 15 | 22 | 6.4 | 9.7 | 0.00 | 0.00 | 0.00 | 73 | 1016.0 |
| 20260509234040 | 15 | 23 | 6.4 | 8.0 | 0.00 | 0.00 | 0.00 | 73 | 1016.1 |
| 20260509233538 | 15 | 37 | 3.2 | 8.0 | 0.00 | 0.00 | 0.00 | 73 | 1016.1 |
| 20260509233041 | 16 | 21 | 3.2 | 6.4 | 0.00 | 0.00 | 0.00 | 72 | 1016.1 |
| 20260509232536 | 16 | 14 | 3.2 | 6.4 | 0.00 | 0.00 | 0.00 | 71 | 1016.1 |
| 20260509232036 | 16 | 44 | 1.6 | 8.0 | 0.00 | 0.00 | 0.00 | 71 | 1016.1 |
| 20260509231547 | 16 | 44 | 4.8 | 8.0 | 0.00 | 0.00 | 0.00 | 70 | 1016.2 |
| 20260509231034 | 16 | 40 | 4.8 | 12.9 | 0.00 | 0.00 | 0.00 | 70 | 1016.1 |
| 20260509230534 | 16 | 57 | 6.4 | 12.9 | 0.00 | 0.00 | 0.00 | 70 | 1016.2 |
| 20260509230036 | 16 | 350 | 6.4 | 11.3 | 0.00 | 0.00 | 0.00 | 70 | 1016.3 |
| 20260509225534 | 16 | 13 | 8.0 | 11.3 | 0.00 | 0.00 | 0.00 | 69 | 1016.2 |
| 20260509225033 | 16 | 59 | 0.0 | 6.4 | 0.00 | 0.00 | 0.00 | 69 | 1016.3 |
| 20260509224535 | 17 | 19 | 4.8 | 8.0 | 0.00 | 0.00 | 0.00 | 68 | 1016.3 |
| 20260509224033 | 17 | 30 | 3.2 | 9.7 | 0.00 | 0.00 | 0.00 | 68 | 1016.3 |
| 20260509223533 | 16 | 20 | 4.8 | 12.9 | 0.00 | 0.00 | 0.00 | 70 | 1016.4 |
| 20260509223034 | 16 | 36 | 8.0 | 12.9 | 0.00 | 0.00 | 0.00 | 70 | 1016.4 |
| 20260509222531 | 16 | 14 | 8.0 | 11.3 | 0.00 | 0.00 | 0.00 | 70 | 1016.5 |
| 20260509222035 | 16 | 35 | 1.6 | 6.4 | 0.00 | 0.00 | 0.00 | 70 | 1016.4 |
| 20260509221531 | 16 | 15 | 1.6 | 6.4 | 0.00 | 0.00 | 0.00 | 70 | 1016.5 |
| 20260509221032 | 16 | 21 | 1.6 | 4.8 | 0.00 | 0.00 | 0.00 | 71 | 1016.5 |
| 20260509220531 | 16 | 41 | 1.6 | 6.4 | 0.00 | 0.00 | 0.00 | 71 | 1016.4 |
| 20260509220030 | 16 | 40 | 1.6 | 6.4 | 0.00 | 0.00 | 0.00 | 72 | 1016.5 |
| 20260509215530 | 16 | 42 | 3.2 | 8.0 | 0.00 | 0.00 | 0.00 | 72 | 1016.5 |
| 20260509215030 | 16 | 15 | 3.2 | 9.7 | 0.00 | 0.00 | 0.00 | 72 | 1016.5 |
| 20260509214528 | 16 | 15 | 1.6 | 6.4 | 0.00 | 0.00 | 0.00 | 71 | 1016.5 |
| 20260509214027 | 16 | 11 | 1.6 | 6.4 | 0.00 | 0.00 | 0.00 | 70 | 1016.5 |
| 20260509213527 | 17 | 10 | 3.2 | 9.7 | 0.00 | 0.00 | 0.00 | 69 | 1016.6 |
| 20260509213027 | 16 | 74 | 3.2 | 9.7 | 0.00 | 0.00 | 0.00 | 70 | 1016.4 |
| 20260509212528 | 16 | 64 | 4.8 | 9.7 | 0.00 | 0.00 | 0.00 | 70 | 1016.5 |
| 20260509212027 | 16 | 31 | 6.4 | 16.1 | 0.00 | 0.00 | 0.00 | 70 | 1016.5 |
| 20260509211524 | 16 | 50 | 8.0 | 16.1 | 0.00 | 0.00 | 0.00 | 70 | 1016.5 |
| 20260509211023 | 17 | 10 | 6.4 | 9.7 | 0.00 | 0.00 | 0.00 | 69 | 1016.4 |
| 20260509210521 | 17 | 25 | 3.2 | 8.0 | 0.00 | 0.00 | 0.00 | 68 | 1016.4 |
| 20260509210023 | 17 | 11 | 4.8 | 8.0 | 0.00 | 0.00 | 0.00 | 68 | 1016.4 |
| 20260509205521 | 17 | 18 | 1.6 | 6.4 | 0.00 | 0.00 | 0.00 | 68 | 1016.3 |
| 20260509205021 | 17 | 35 | 3.2 | 6.4 | 0.00 | 0.00 | 0.00 | 68 | 1016.4 |
| 20260509204520 | 17 | 13 | 3.2 | 6.4 | 0.00 | 0.00 | 0.00 | 68 | 1016.4 |
| 20260509204021 | 17 | 30 | 3.2 | 6.4 | 0.00 | 0.00 | 0.00 | 67 | 1016.4 |
| 20260509203520 | 17 | 58 | 1.6 | 8.0 | 0.00 | 0.00 | 0.00 | 67 | 1016.3 |
| 20260509203023 | 17 | 49 | 4.8 | 9.7 | 0.00 | 0.00 | 0.00 | 68 | 1016.4 |
| 20260509202520 | 17 | 40 | 4.8 | 9.7 | 0.00 | 0.00 | 0.00 | 68 | 1016.4 |
| 20260509202022 | 17 | 42 | 0.0 | 6.4 | 0.00 | 0.00 | 0.00 | 68 | 1016.4 |
| 20260509201521 | 17 | 19 | 4.8 | 6.4 | 0.00 | 0.00 | 0.00 | 68 | 1016.4 |
| 20260509201021 | 18 | 14 | 4.8 | 8.0 | 0.00 | 0.00 | 0.00 | 67 | 1016.4 |
| 20260509200522 | 18 | 21 | 3.2 | 9.7 | 0.00 | 0.00 | 0.00 | 67 | 1016.4 |
| 20260509200022 | 18 | 61 | 4.8 | 12.9 | 0.00 | 0.00 | 0.00 | 67 | 1016.4 |
| 20260509195621 | 18 | 56 | 6.4 | 12.9 | 0.00 | 0.00 | 0.00 | 68 | 1016.4 |
| 20260509195018 | 18 | 16 | 4.8 | 8.0 | 0.00 | 0.00 | 0.00 | 67 | 1016.3 |
| 20260509194523 | 19 | 321 | 1.6 | 4.8 | 0.00 | 0.00 | 0.00 | 67 | 1016.1 |
| 20260509194018 | 19 | 234 | 1.6 | 3.2 | 0.00 | 0.00 | 0.00 | 67 | 1016.1 |
| 20260509193519 | 19 | 232 | 0.0 | 3.2 | 0.00 | 0.00 | 0.00 | 67 | 1016.1 |
| 20260509193019 | 19 | 202 | 0.0 | 3.2 | 0.00 | 0.00 | 0.00 | 67 | 1016.1 |
| 20260509192518 | 19 | 190 | 0.0 | 3.2 | 0.00 | 0.00 | 0.00 | 67 | 1016.2 |
| 20260509192017 | 19 | 189 | 0.0 | 0.0 | 0.00 | 0.00 | 0.00 | 67 | 1016.1 |
| 20260509191518 | 19 | 189 | 0.0 | 0.0 | 0.00 | 0.00 | 0.00 | 67 | 1016.2 |
| 20260509191017 | 19 | 189 | 0.0 | 0.0 | 0.00 | 0.00 | 0.00 | 67 | 1016.2 |
| 20260509190517 | 19 | 189 | 0.0 | 3.2 | 0.00 | 0.00 | 0.00 | 67 | 1016.3 |
| 20260509190019 | 19 | 189 | 0.0 | 3.2 | 0.00 | 0.00 | 0.00 | 67 | 1016.2 |
| 20260509185517 | 19 | 191 | 1.6 | 3.2 | 0.00 | 0.00 | 0.00 | 67 | 1016.1 |
| 20260509185017 | 19 | 191 | 1.6 | 4.8 | 0.00 | 0.00 | 0.00 | 67 | 1016.2 |
| 20260509184517 | 19 | 191 | 0.0 | 4.8 | 0.00 | 0.00 | 0.00 | 67 | 1016.2 |
| 20260509184016 | 19 | 191 | 1.6 | 9.7 | 0.00 | 0.00 | 0.00 | 66 | 1016.2 |
| 20260509183517 | 19 | 192 | 3.2 | 11.3 | 0.00 | 0.00 | 0.00 | 66 | 1016.1 |
| 20260509183023 | 20 | 180 | 3.2 | 8.0 | 0.00 | 0.00 | 0.00 | 66 | 1016.0 |
| 20260509182515 | 20 | 259 | 4.8 | 11.3 | 0.00 | 0.00 | 0.00 | 65 | 1016.1 |
| 20260509182015 | 20 | 238 | 6.4 | 11.3 | 0.00 | 0.00 | 0.00 | 65 | 1016.0 |
| 20260509181515 | 20 | 245 | 4.8 | 11.3 | 0.00 | 0.00 | 0.00 | 65 | 1016.0 |
| 20260509181015 | 20 | 259 | 6.4 | 11.3 | 0.00 | 0.00 | 0.00 | 65 | 1015.9 |
| 20260509180518 | 20 | 263 | 6.4 | 14.5 | 0.00 | 0.00 | 0.00 | 64 | 1015.8 |
| 20260509180015 | 20 | 269 | 9.7 | 14.5 | 0.00 | 0.00 | 0.00 | 64 | 1015.7 |
| 20260509175514 | 20 | 259 | 8.0 | 12.9 | 0.00 | 0.00 | 0.00 | 63 | 1015.6 |
| 20260509175014 | 20 | 271 | 8.0 | 12.9 | 0.00 | 0.00 | 0.00 | 63 | 1015.5 |
| 20260509174515 | 20 | 257 | 8.0 | 14.5 | 0.00 | 0.00 | 0.00 | 63 | 1015.5 |
| 20260509174015 | 20 | 277 | 9.7 | 17.7 | 0.00 | 0.00 | 0.00 | 63 | 1015.4 |
| 20260509173514 | 20 | 284 | 11.3 | 17.7 | 0.00 | 0.00 | 0.00 | 62 | 1015.4 |
| 20260509173022 | 20 | 269 | 8.0 | 16.1 | 0.00 | 0.00 | 0.00 | 62 | 1015.3 |
| 20260509172513 | 20 | 258 | 9.7 | 16.1 | 0.00 | 0.00 | 0.00 | 61 | 1015.2 |
| 20260509172013 | 20 | 264 | 11.3 | 19.3 | 0.00 | 0.00 | 0.00 | 60 | 1015.2 |
| 20260509171513 | 20 | 240 | 12.9 | 19.3 | 0.00 | 0.00 | 0.00 | 60 | 1015.2 |
| 20260509171013 | 20 | 247 | 12.9 | 19.3 | 0.00 | 0.00 | 0.00 | 60 | 1015.2 |
| 20260509170512 | 20 | 285 | 11.3 | 19.3 | 0.00 | 0.00 | 0.00 | 59 | 1015.2 |
| 20260509170013 | 20 | 259 | 11.3 | 19.3 | 0.00 | 0.00 | 0.00 | 58 | 1015.3 |
| 20260509165512 | 20 | 268 | 12.9 | 17.7 | 0.00 | 0.00 | 0.00 | 57 | 1015.3 |
| 20260509165014 | 20 | 254 | 11.3 | 19.3 | 0.00 | 0.00 | 0.00 | 58 | 1015.3 |
| 20260509164512 | 20 | 259 | 12.9 | 22.5 | 0.00 | 0.00 | 0.00 | 57 | 1015.0 |
| 20260509164011 | 21 | 264 | 14.5 | 22.5 | 0.00 | 0.00 | 0.00 | 56 | 1015.0 |
| 20260509163515 | 21 | 263 | 16.1 | 22.5 | 0.00 | 0.00 | 0.00 | 56 | 1015.2 |
| 20260509163011 | 21 | 264 | 12.9 | 22.5 | 0.00 | 0.00 | 0.00 | 55 | 1015.2 |
| 20260509162511 | 21 | 270 | 12.9 | 20.9 | 0.00 | 0.00 | 0.00 | 54 | 1015.2 |
| 20260509162013 | 21 | 247 | 12.9 | 20.9 | 0.00 | 0.00 | 0.00 | 53 | 1015.1 |
| 20260509161511 | 21 | 261 | 12.9 | 20.9 | 0.00 | 0.00 | 0.00 | 53 | 1015.1 |
| 20260509161010 | 21 | 248 | 14.5 | 22.5 | 0.00 | 0.00 | 0.00 | 52 | 1015.0 |
| 20260509160513 | 21 | 261 | 17.7 | 22.5 | 0.00 | 0.00 | 0.00 | 52 | 1015.1 |
| 20260509160010 | 21 | 238 | 16.1 | 22.5 | 0.00 | 0.00 | 0.00 | 51 | 1015.0 |
| 20260509155507 | 22 | 255 | 14.5 | 20.9 | 0.00 | 0.00 | 0.00 | 51 | 1014.8 |
| 20260509155007 | 22 | 262 | 16.1 | 20.9 | 0.00 | 0.00 | 0.00 | 50 | 1014.8 |
| 20260509154505 | 22 | 275 | 14.5 | 25.7 | 0.00 | 0.00 | 0.00 | 50 | 1014.9 |
| 20260509154007 | 22 | 283 | 19.3 | 25.7 | 0.00 | 0.00 | 0.00 | 49 | 1015.1 |
| 20260509153501 | 22 | 252 | 12.9 | 24.1 | 0.00 | 0.00 | 0.00 | 48 | 1014.9 |
| 20260509153001 | 22 | 293 | 17.7 | 25.7 | 0.00 | 0.00 | 0.00 | 47 | 1014.9 |
| 20260509152600 | 22 | 262 | 16.1 | 27.4 | 0.00 | 0.00 | 0.00 | 47 | 1014.8 |
| 20260509152059 | 22 | 264 | 19.3 | 27.4 | 0.00 | 0.00 | 0.00 | 46 | 1014.8 |
| 20260509151559 | 22 | 244 | 14.5 | 24.1 | 0.00 | 0.00 | 0.00 | 45 | 1014.8 |
| 20260509151058 | 23 | 260 | 14.5 | 24.1 | 0.00 | 0.00 | 0.00 | 44 | 1014.8 |
| 20260509150557 | 23 | 234 | 12.9 | 24.1 | 0.00 | 0.00 | 0.00 | 40 | 1014.7 |
| 20260509150056 | 23 | 271 | 14.5 | 22.5 | 0.00 | 0.00 | 0.00 | 42 | 1014.8 |
| 20260509145555 | 23 | 232 | 11.3 | 20.9 | 0.00 | 0.00 | 0.00 | 40 | 1014.8 |
| 20260509145055 | 23 | 241 | 14.5 | 22.5 | 0.00 | 0.00 | 0.00 | 41 | 1014.8 |
| 20260509144554 | 23 | 251 | 16.1 | 22.5 | 0.00 | 0.00 | 0.00 | 41 | 1014.9 |
| 20260509144054 | 23 | 251 | 14.5 | 20.9 | 0.00 | 0.00 | 0.00 | 39 | 1014.9 |
| 20260509143553 | 23 | 219 | 12.9 | 20.9 | 0.00 | 0.00 | 0.00 | 38 | 1014.9 |
| 20260509143053 | 23 | 243 | 11.3 | 20.9 | 0.00 | 0.00 | 0.00 | 38 | 1014.8 |
| 20260509142552 | 23 | 233 | 14.5 | 25.7 | 0.00 | 0.00 | 0.00 | 39 | 1014.9 |
| 20260509142051 | 23 | 207 | 12.9 | 24.1 | 0.00 | 0.00 | 0.00 | 37 | 1014.8 |
| 20260509141554 | 23 | 255 | 16.1 | 24.1 | 0.00 | 0.00 | 0.00 | 37 | 1014.9 |
| 20260509141050 | 24 | 259 | 14.5 | 22.5 | 0.00 | 0.00 | 0.00 | 36 | 1015.0 |
| 20260509140548 | 24 | 225 | 11.3 | 22.5 | 0.00 | 0.00 | 0.00 | 36 | 1015.0 |
| 20260509140055 | 24 | 171 | 8.0 | 22.5 | 0.00 | 0.00 | 0.00 | 35 | 1015.0 |
| 20260509135547 | 23 | 221 | 16.1 | 30.6 | 0.00 | 0.00 | 0.00 | 37 | 1014.9 |
| 20260509135046 | 24 | 252 | 17.7 | 27.4 | 0.00 | 0.00 | 0.00 | 37 | 1015.0 |
| 20260509134648 | 24 | 243 | 12.9 | 22.5 | 0.00 | 0.00 | 0.00 | 37 | 1015.0 |
| 20260509134044 | 24 | 195 | 8.0 | 22.5 | 0.00 | 0.00 | 0.00 | 37 | 1015.1 |
| 20260509133543 | 23 | 270 | 17.7 | 25.7 | 0.00 | 0.00 | 0.00 | 37 | 1015.2 |
| 20260509133042 | 23 | 260 | 17.7 | 25.7 | 0.00 | 0.00 | 0.00 | 38 | 1015.1 |
| 20260509132545 | 24 | 270 | 17.7 | 24.1 | 0.00 | 0.00 | 0.00 | 37 | 1015.2 |
| 20260509132043 | 24 | 202 | 11.3 | 20.9 | 0.00 | 0.00 | 0.00 | 37 | 1015.1 |
| 20260509131540 | 24 | 218 | 12.9 | 25.7 | 0.00 | 0.00 | 0.00 | 37 | 1015.2 |
| 20260509131039 | 24 | 165 | 9.7 | 25.7 | 0.00 | 0.00 | 0.00 | 39 | 1015.2 |
| 20260509130540 | 24 | 234 | 16.1 | 27.4 | 0.00 | 0.00 | 0.00 | 39 | 1015.3 |
| 20260509130038 | 24 | 218 | 17.7 | 27.4 | 0.00 | 0.00 | 0.00 | 38 | 1015.3 |
| 20260509125536 | 24 | 249 | 16.1 | 22.5 | 0.00 | 0.00 | 0.00 | 38 | 1015.4 |
| 20260509125038 | 24 | 205 | 11.3 | 25.7 | 0.00 | 0.00 | 0.00 | 38 | 1015.4 |
| 20260509124536 | 24 | 267 | 17.7 | 27.4 | 0.00 | 0.00 | 0.00 | 39 | 1015.6 |
| 20260509124035 | 25 | 252 | 12.9 | 29.0 | 0.00 | 0.00 | 0.00 | 38 | 1015.6 |
| 20260509123537 | 24 | 180 | 14.5 | 29.0 | 0.00 | 0.00 | 0.00 | 38 | 1015.6 |
| 20260509123034 | 24 | 219 | 9.7 | 22.5 | 0.00 | 0.00 | 0.00 | 39 | 1015.7 |
| 20260509122532 | 24 | 252 | 14.5 | 24.1 | 0.00 | 0.00 | 0.00 | 39 | 1015.6 |
| 20260509122032 | 24 | 217 | 17.7 | 25.7 | 0.00 | 0.00 | 0.00 | 38 | 1015.7 |
| 20260509121536 | 24 | 234 | 16.1 | 29.0 | 0.00 | 0.00 | 0.00 | 39 | 1015.7 |
| 20260509121031 | 23 | 259 | 20.9 | 29.0 | 0.00 | 0.00 | 0.00 | 39 | 1015.7 |
| 20260509120531 | 24 | 225 | 16.1 | 33.8 | 0.00 | 0.00 | 0.00 | 39 | 1015.7 |
| 20260509120030 | 24 | 257 | 16.1 | 32.2 | 0.00 | 0.00 | 0.00 | 39 | 1015.6 |
| 20260509115528 | 24 | 223 | 17.7 | 32.2 | 0.00 | 0.00 | 0.00 | 41 | 1015.6 |
| 20260509115028 | 23 | 278 | 22.5 | 32.2 | 0.00 | 0.00 | 0.00 | 41 | 1015.6 |
| 20260509114529 | 23 | 238 | 20.9 | 32.2 | 0.00 | 0.00 | 0.00 | 42 | 1015.6 |
| 20260509114028 | 24 | 224 | 17.7 | 33.8 | 0.00 | 0.00 | 0.00 | 42 | 1015.6 |
| 20260509113527 | 23 | 210 | 22.5 | 33.8 | 0.00 | 0.00 | 0.00 | 41 | 1015.8 |
| 20260509113028 | 23 | 174 | 14.5 | 29.0 | 0.00 | 0.00 | 0.00 | 41 | 1015.8 |
| 20260509112525 | 23 | 236 | 17.7 | 27.4 | 0.00 | 0.00 | 0.00 | 43 | 1015.8 |
| 20260509112126 | 23 | 228 | 20.9 | 32.2 | 0.00 | 0.00 | 0.00 | 41 | 1016.0 |
| 20260509111524 | 23 | 221 | 17.7 | 32.2 | 0.00 | 0.00 | 0.00 | 41 | 1015.9 |
| 20260509111025 | 23 | 221 | 19.3 | 32.2 | 0.00 | 0.00 | 0.00 | 42 | 1016.0 |
| 20260509110524 | 23 | 289 | 20.9 | 29.0 | 0.00 | 0.00 | 0.00 | 42 | 1015.9 |
| 20260509110025 | 23 | 271 | 16.1 | 27.4 | 0.00 | 0.00 | 0.00 | 43 | 1016.0 |
| 20260509105526 | 23 | 223 | 11.3 | 30.6 | 0.00 | 0.00 | 0.00 | 43 | 1016.0 |
| 20260509105024 | 23 | 208 | 17.7 | 30.6 | 0.00 | 0.00 | 0.00 | 43 | 1016.0 |
| 20260509104534 | 23 | 238 | 16.1 | 25.7 | 0.00 | 0.00 | 0.00 | 43 | 1016.0 |
| 20260509104021 | 23 | 203 | 16.1 | 25.7 | 0.00 | 0.00 | 0.00 | 43 | 1016.0 |
| 20260509103521 | 23 | 211 | 17.7 | 27.4 | 0.00 | 0.00 | 0.00 | 43 | 1016.0 |
| 20260509103021 | 23 | 205 | 12.9 | 37.0 | 0.00 | 0.00 | 0.00 | 43 | 1016.0 |
| 20260509102520 | 23 | 192 | 19.3 | 37.0 | 0.00 | 0.00 | 0.00 | 40 | 1016.0 |
| 20260509102019 | 23 | 254 | 17.7 | 29.0 | 0.00 | 0.00 | 0.00 | 40 | 1016.0 |
| 20260509101519 | 24 | 219 | 16.1 | 29.0 | 0.00 | 0.00 | 0.00 | 37 | 1016.1 |
| 20260509101021 | 24 | 217 | 14.5 | 27.4 | 0.00 | 0.00 | 0.00 | 38 | 1016.1 |
| 20260509100517 | 23 | 189 | 17.7 | 27.4 | 0.00 | 0.00 | 0.00 | 37 | 1016.2 |
| 20260509100017 | 24 | 215 | 17.7 | 30.6 | 0.00 | 0.00 | 0.00 | 37 | 1016.2 |
| 20260509095516 | 24 | 194 | 16.1 | 30.6 | 0.00 | 0.00 | 0.00 | 38 | 1016.3 |
| 20260509095014 | 23 | 216 | 17.7 | 30.6 | 0.00 | 0.00 | 0.00 | 39 | 1016.4 |
| 20260509094513 | 23 | 252 | 20.9 | 27.4 | 0.00 | 0.00 | 0.00 | 39 | 1016.4 |
| 20260509094012 | 23 | 265 | 17.7 | 24.1 | 0.00 | 0.00 | 0.00 | 40 | 1016.5 |